Dewpoint
11 2 3 9 12 12 11 12 12 11 11 9 8 5 7 12 12 11 11 10 10 10 10 10 12 11 10 11 11 10 10 10 10 8 4 4 5 -4 4 12 1 11 11
4 1 2 10 12 12 12 12 11 11 11 9 5 4 10 11 11 11 10 10 9 10 6 10 11 11 11 11 10 10 10 10 9 5 4 2 -2 8 6 8 3 11 12
7 3 5 12 13 12 12 13 12 11 10 8 5 9 9 10 10 9 8 8 10 10 6 2 9 9 10 9 9 10 10 9 8 3 -2 3 7 8 8 5 3 7 10
8 6 7 12 11 12 13 12 9 8 8 7 5 11 10 10 10 10 10 9 9 8 5 3 -1 -3 3 8 10 10 10 11 8 7 -2 6 8 9 9 7 1 3 9
8 13 13 11 12 13 13 11 11 9 8 7 4 9 10 10 10 10 10 10 10 9 6 2 1 -3 -4 3 6 8 7 10 9 6 6 8 5 8 10 8 5 0 8
9 9 6 10 13 12 12 11 11 9 10 7 2 9 10 10 11 11 10 11 10 9 7 4 2 3 4 3 3 -0 -1 1 -1 0 4 9 8 1 7 8 5 -1 -2
11 9 4 2 8 9 10 11 10 9 10 11 3 9 9 10 10 11 10 10 11 6 5 3 -2 -1 4 6 6 5 -1 -7 -9 -11 -11 1 6 5 -2 -3 -5 -2 -4
11 8 2 0 4 7 8 10 11 11 12 11 6 5 9 10 10 11 13 10 11 4 1 -1 -2 -3 -2 1 0 2 -2 -3 -5 -9 -10 -8 -1 1 -2 -9 -9 -9 -8
11 8 4 3 7 4 5 6 11 12 11 11 6 2 -1 7 9 11 11 8 0 -2 -2 -1 -0 0 0 1 1 1 1 0 -0 -1 -4 -7 -8 -7 -11 -15 -14 -11 -10
11 10 10 6 7 5 6 5 7 9 11 9 3 -3 -5 1 4 2 3 0 -2 -2 -1 0 1 1 2 2 2 3 4 4 4 3 2 2 2 0 -2 -6 -13 -15 -13
9 11 12 12 12 10 10 12 12 5 3 0 -2 -1 -6 2 6 4 2 -1 0 2 2 3 3 3 4 4 5 6 6 5 5 5 5 5 6 5 4 4 3 -2 -11
8 8 11 12 13 12 13 12 10 7 8 6 6 7 6 8 8 7 3 4 5 5 5 6 6 7 8 8 8 8 8 8 8 8 8 8 8 8 7 5 5 5 4
6 9 10 11 12 12 13 11 13 12 10 11 12 10 10 8 8 8 8 9 8 8 9 9 10 10 11 11 11 11 11 11 11 11 11 10 10 10 10 10 10 9 7
6 9 10 10 11 12 13 11 13 12 12 12 11 11 10 11 11 12 11 11 12 12 12 12 12 12 12 12 12 11 11 11 11 11 11 11 11 11 11 11 11 11 10
7 8 9 8 9 11 13 12 12 13 12 11 11 12 12 12 12 12 12 12 12 12 12 11 11 11 11 10 11 10 10 10 10 11 11 11 11 11 10 10 10 10 10
8 9 9 9 11 10 11 13 12 13 13 12 12 12 12 11 11 12 12 12 11 11 11 11 10 9 9 9 7 8 9 9 8 8 9 9 8 10 10 9 8 8 8
7 8 8 10 10 11 12 13 13 13 13 13 13 12 12 12 11 12 11 11 9 9 8 8 4 3 3 3 4 4 6 7 7 5 6 5 7 8 9 8 8 9 8
5 3 3 3 7 11 12 13 13 13 12 12 12 11 11 11 11 11 8 3 3 2 1 -0 -0 -1 -1 -1 0 2 3 2 1 1 2 4 6 8 9 9 9 6 7
5 2 2 3 6 11 12 12 12 11 11 11 11 11 8 6 5 -0 -4 -4 -2 -1 -1 -1 -2 -2 -4 -5 0 -2 -2 0 -2 2 3 5 5 5 6 3 3 3 4
5 4 5 7 10 12 12 12 11 11 11 10 7 5 -0 -4 -5 -4 -2 -2 -3 -4 -4 -6 -7 -8 -9 -4 -9 -5 -9 -3 -4 -1 2 -0 -1 -5 -4 -3 -1 2 4
9 8 8 8 10 11 11 11 9 7 7 5 0 -4 -5 -4 -3 -2 -4 -6 -7 -8 -8 -11 -12 -14 -14 -14 -8 -13 -10 -8 -4 -3 -8 -10 -10 -7 -1 1 -3 -4 -3
8 9 10 11 11 11 9 7 6 6 1 -3 -5 -5 -3 -2 -3 -5 -6 -6 -7 -9 -11 -15 -16 -19 -17 -17 -10 -12 -5 -9 -7 -10 -3 -10 -3 -4 -6 -14 -8 -7 -6
5 3 6 7 6 7 7 6 3 -1 -3 -5 -4 -2 -2 -3 -3 -4 -6 -7 -8 -11 -15 -19 -20 -22 -21 -19 -17 -10 -7 -5 -7 -6 -10 -7 -13 -10 -13 -13 -10 -7 -10
2 1 1 3 3 4 3 2 -1 -4 -4 -3 -2 -2 -3 -3 -2 -3 -5 -7 -9 -14 -18 -20 -22 -23 -22 -19 -15 -17 -17 -10 -8 -7 -8 -9 -10 -10 -10 -8 -11 -5 -5
2 0 -0 -0 1 2 1 -2 -4 -4 -3 -2 -2 -2 -2 -2 -1 -2 -3 -5 -8 -12 -18 -23 -24 -24 -23 -18 -11 -12 -15 -11 -16 -10 -7 -9 -9 -9 -9 -9 -6 -12 -13
1 -1 -2 -2 -2 -3 -3 -3 -3 -3 -2 -2 -2 -1 -2 -1 -2 -2 -4 -6 -10 -16 -21 -25 -25 -25 -22 -17 -15 -14 -14 -11 -11 -10 -8 -9 -8 -9 -8 -10 -11 -13 -8
Wind_Speed
7 1 4 6 9 8 6 3 3 3 9 8 7 5 7 7 6 5 4 7 8 7 6 4 6 1 2 4 4 6 9 12 15 15 13 7 6 5 3 7 1 4 7
5 2 4 8 9 8 6 4 3 4 8 7 7 2 7 4 4 5 7 9 6 6 8 2 2 2 2 2 5 8 11 14 17 17 9 4 4 3 5 5 5 6 5
0 5 6 10 8 5 4 4 4 6 6 6 3 5 2 3 4 6 5 2 3 5 12 5 7 3 6 8 6 8 8 13 14 9 4 3 4 8 11 11 8 8 6
4 3 8 9 8 5 5 3 4 4 5 5 1 2 2 2 1 2 6 3 3 9 12 7 5 9 10 8 7 10 6 9 10 7 3 1 4 9 11 13 10 12 9
7 4 3 5 8 6 6 4 2 5 5 5 2 4 2 2 1 2 2 4 4 9 11 12 7 4 4 6 10 10 9 10 11 6 2 9 10 6 13 13 12 11 13
7 6 5 8 9 10 6 3 2 5 5 6 1 5 5 4 2 2 4 6 9 8 9 11 7 5 5 6 7 9 12 13 14 10 7 7 14 13 15 16 14 15 17
8 5 4 5 9 8 6 4 4 2 3 4 3 6 6 4 3 5 5 7 12 11 8 10 12 10 8 9 11 12 13 13 14 14 13 13 14 17 19 18 17 18 20
11 7 3 5 8 8 6 5 3 2 2 3 4 4 8 8 6 5 4 9 12 10 11 10 11 10 9 9 10 11 12 13 13 12 13 11 14 18 18 19 20 21 22
8 7 3 4 6 6 5 3 4 4 3 3 4 2 6 6 5 6 7 9 6 8 9 8 8 9 10 9 10 11 13 13 14 14 12 12 12 14 15 16 18 21 22
9 8 6 4 4 6 3 1 3 5 6 6 3 2 0 3 2 3 5 6 6 8 9 10 10 10 11 11 12 12 12 15 16 15 14 13 13 14 16 18 18 21 23
10 11 10 7 7 2 2 4 6 6 3 2 2 2 2 3 3 5 5 7 7 8 9 10 11 12 13 14 13 12 18 18 17 17 19 19 20 21 20 21 21 22 23
11 12 12 11 11 9 9 11 6 4 3 2 2 3 2 2 4 5 6 5 7 8 10 11 13 16 17 18 20 20 21 22 22 24 26 26 26 27 27 26 26 27 27
12 11 14 13 13 10 10 8 4 4 3 3 6 5 3 3 2 5 7 11 13 14 15 17 18 19 21 22 23 23 24 24 25 28 29 29 30 30 32 33 33 31 31
12 14 14 16 15 13 12 9 7 7 6 5 4 5 5 3 6 7 9 11 13 15 16 16 16 17 18 19 21 22 24 25 26 28 30 31 32 33 33 34 35 35 34
12 15 16 12 14 15 14 9 10 6 6 4 7 5 5 3 3 5 6 8 10 11 12 14 18 17 19 19 20 21 23 23 23 26 28 30 31 33 32 32 33 33 32
9 11 9 12 13 12 13 12 9 11 6 8 7 4 6 5 4 5 6 8 11 12 14 13 14 15 16 17 19 20 21 23 24 26 28 28 30 31 32 32 31 31 31
14 15 14 14 12 12 11 10 9 10 10 7 4 3 1 3 5 2 5 8 9 8 9 10 12 14 16 18 20 20 23 25 27 28 31 30 29 28 29 32 31 29 28
9 11 12 13 15 14 9 10 8 6 6 4 5 4 5 2 5 2 2 4 5 7 9 13 15 18 20 23 20 22 22 27 26 28 28 28 30 26 22 22 26 29 31
9 7 9 10 15 16 13 15 13 11 10 10 8 5 4 5 4 4 5 7 9 11 13 17 19 20 24 24 23 26 23 24 22 20 23 17 18 25 27 27 25 28 29
11 11 13 14 17 19 16 15 15 14 12 10 8 7 8 8 8 9 10 12 14 15 17 20 21 21 20 19 24 22 25 16 18 22 22 24 26 28 28 26 28 25 25
15 16 16 17 16 17 18 15 13 12 12 12 11 10 9 9 10 12 14 16 18 17 17 18 19 20 20 20 23 28 25 18 15 18 25 26 26 23 21 24 30 34 36
20 20 21 21 21 20 16 14 13 13 15 13 11 9 9 10 13 16 19 20 19 17 17 18 19 21 20 21 23 22 20 30 20 31 19 26 20 25 28 33 29 31 36
19 18 18 17 16 16 15 16 17 15 13 10 8 8 9 12 17 20 22 22 19 17 17 17 19 20 22 21 19 16 15 13 38 22 35 16 32 29 36 36 32 30 37
20 20 20 20 19 17 15 14 12 12 11 9 7 7 9 13 19 22 23 23 21 19 18 19 19 19 19 19 20 19 20 22 30 30 11 38 32 32 34 30 35 30 30
21 21 20 20 20 19 17 14 12 11 9 7 6 7 10 15 19 21 23 24 23 20 19 18 19 19 19 19 19 25 27 25 30 31 40 34 33 32 32 33 30 41 38
21 20 19 18 19 17 15 14 11 8 7 6 5 5 7 12 16 20 22 23 21 19 18 19 19 20 20 20 22 26 27 29 31 31 34 40 39 37 32 36 33 39 29
Wind_Direction
314 14 160 153 156 176 172 146 234 297 328 329 323 314 149 157 190 229 255 288 329 6 6 83 61 139 200 229 259 270 282 291 292 294 305 287 267 288 277 252 196 44 276
266 117 133 145 153 171 177 192 252 306 321 333 339 178 172 177 185 253 274 284 328 1 15 155 135 235 215 244 265 271 285 296 304 309 316 299 274 323 285 261 193 199 233
123 87 117 135 143 181 184 210 292 319 328 343 21 95 92 211 283 312 302 319 333 343 331 331 242 270 235 232 251 270 281 296 311 339 315 54 351 317 300 294 260 223 218
142 68 110 141 161 168 152 231 315 336 335 336 357 129 155 162 200 29 14 291 3 338 349 350 275 263 258 247 265 253 292 302 319 334 325 335 250 296 291 285 259 230 222
134 114 190 141 153 153 175 252 336 346 338 333 257 150 153 183 200 322 337 322 310 341 348 348 355 353 286 275 273 256 267 302 305 313 335 308 272 233 282 270 260 238 226
133 189 193 198 171 183 201 213 276 331 346 352 24 162 165 209 201 251 302 330 317 317 336 351 349 355 0 348 330 298 283 280 296 293 255 254 291 273 254 271 261 250 240
152 234 230 185 183 195 191 197 255 279 349 6 1 184 190 208 261 220 277 306 316 330 327 354 356 335 323 320 317 316 319 313 306 307 297 264 270 276 270 269 269 264 256
183 234 175 174 181 191 199 200 205 185 305 345 9 226 224 205 228 279 242 282 303 329 350 357 352 352 339 323 324 321 320 317 313 311 303 290 274 280 284 277 273 271 271
212 201 219 188 187 192 193 182 195 203 220 283 338 334 251 226 220 240 265 277 307 331 338 342 336 337 336 331 323 320 318 319 316 318 312 309 302 296 295 286 277 273 270
203 190 229 241 209 197 201 137 258 235 223 252 291 352 303 214 215 272 287 298 313 323 329 332 332 329 324 320 315 311 309 312 312 310 309 314 309 300 298 296 290 282 275
217 197 193 202 257 284 340 289 271 273 254 241 284 74 62 105 11 332 325 329 322 320 321 322 319 314 312 311 311 306 315 314 310 307 308 303 295 290 287 290 290 286 279
246 210 201 202 216 202 200 239 266 217 291 158 17 34 22 351 241 275 301 306 309 310 318 317 322 324 327 324 323 319 304 307 307 306 302 296 296 292 290 288 287 287 285
266 240 210 208 216 227 215 229 240 223 278 179 236 242 279 288 315 311 330 328 329 333 332 336 333 333 331 330 325 324 319 315 306 301 303 303 303 301 299 298 296 290 285
232 223 233 212 212 211 228 222 188 227 211 190 262 230 247 315 308 341 329 330 335 332 326 334 328 324 319 315 313 309 303 303 302 302 303 302 302 302 300 298 297 297 293
228 218 224 224 221 208 213 232 185 203 228 211 216 237 249 246 269 281 295 324 315 315 317 310 315 317 317 317 314 311 302 299 305 302 301 299 300 300 302 300 299 298 297
207 215 223 223 223 224 209 204 199 187 183 208 216 253 261 284 305 320 336 303 306 307 322 332 324 320 319 312 312 311 308 301 297 296 293 296 298 298 299 304 306 303 301
204 205 209 208 214 214 199 194 180 192 190 189 192 231 56 262 265 355 323 318 338 356 348 324 331 325 323 323 318 318 318 316 313 313 312 310 310 309 303 304 311 305 305
210 205 211 207 198 192 184 170 157 178 158 165 144 178 224 253 99 153 298 4 11 345 334 331 331 330 327 327 327 316 309 305 314 312 309 314 311 304 307 311 304 311 305
177 170 155 157 168 159 162 158 167 146 152 150 171 179 121 116 117 83 37 13 4 350 337 336 333 332 330 333 323 316 321 315 322 331 325 310 308 306 302 316 315 309 314
151 136 137 138 143 156 163 167 165 164 164 164 145 122 108 92 64 38 16 0 353 348 336 336 333 334 338 327 327 328 326 334 327 316 312 313 312 317 308 307 305 308 303
126 125 124 122 124 136 147 157 158 146 133 126 118 102 78 53 33 17 4 354 349 347 343 343 343 346 348 347 338 336 342 327 330 310 308 312 318 305 308 310 306 303 301
135 132 133 137 144 150 156 146 140 130 119 109 94 80 58 34 19 8 2 356 353 350 350 351 350 350 348 354 347 347 338 333 318 326 324 324 314 311 304 305 302 299 297
140 141 145 148 152 155 152 138 129 119 109 102 89 65 40 23 13 7 3 358 355 352 352 352 348 349 344 345 345 344 340 313 322 326 322 315 313 316 309 315 317 301 298
134 135 134 129 124 120 124 122 120 119 119 100 74 39 23 12 10 3 358 353 348 346 344 343 339 339 337 334 329 330 325 314 321 317 314 312 310 312 310 308 309 306 298
144 144 144 143 142 143 143 140 133 126 111 97 71 35 13 2 358 356 348 342 335 331 330 330 330 332 331 326 324 321 325 314 321 312 310 312 311 311 306 310 299 301 306
150 147 145 145 139 140 140 139 138 131 118 102 71 35 4 345 343 344 338 332 327 325 325 324 326 328 328 322 316 317 318 309 313 310 306 307 306 308 305 302 305 304 300
Height
1493 1494 1495 1496 1498 1501 1502 1503 1504 1504 1504 1503 1503 1502 1503 1503 1503 1505 1506 1507 1507 1506 1505 1505 1506 1506 1505 1505 1505 1506 1506 1505 1503 1503 1502 1501 1503 1503 1503 1503 1504 1505 1506
1493 1494 1494 1496 1498 1500 1502 1504 1504 1504 1504 1503 1502 1501 1503 1503 1504 1505 1505 1506 1506 1506 1505 1504 1505 1504 1505 1505 1505 1506 1505 1502 1502 1500 1501 1501 1501 1502 1503 1501 1503 1503 1505
1493 1494 1494 1497 1499 1500 1501 1502 1503 1503 1503 1503 1502 1503 1504 1504 1505 1505 1504 1505 1505 1506 1504 1503 1503 1504 1504 1504 1505 1504 1504 1502 1500 1499 1500 1500 1501 1500 1501 1501 1502 1502 1504
1494 1495 1495 1497 1499 1500 1502 1502 1502 1502 1502 1502 1503 1503 1504 1504 1505 1505 1505 1505 1504 1504 1503 1503 1502 1502 1502 1502 1503 1503 1502 1500 1499 1499 1499 1499 1499 1499 1500 1500 1500 1500 1502
1495 1495 1495 1498 1499 1500 1501 1501 1502 1502 1502 1502 1502 1503 1505 1505 1504 1505 1505 1505 1504 1504 1503 1502 1501 1501 1501 1501 1501 1501 1501 1499 1498 1498 1498 1499 1498 1499 1497 1497 1498 1499 1499
1496 1494 1496 1497 1498 1499 1499 1500 1501 1501 1502 1501 1502 1503 1503 1504 1503 1504 1506 1506 1504 1503 1503 1502 1501 1500 1500 1500 1500 1499 1499 1498 1496 1496 1496 1497 1497 1497 1496 1495 1495 1496 1496
1496 1494 1496 1496 1496 1498 1498 1499 1500 1500 1501 1501 1501 1503 1503 1504 1503 1504 1505 1505 1504 1503 1502 1501 1500 1500 1499 1499 1498 1498 1497 1497 1496 1495 1495 1495 1494 1494 1494 1493 1493 1493 1493
1495 1493 1495 1495 1496 1497 1498 1498 1499 1499 1500 1501 1501 1502 1502 1503 1503 1503 1503 1505 1504 1503 1501 1501 1500 1500 1499 1498 1497 1496 1495 1495 1494 1493 1492 1492 1492 1491 1491 1491 1491 1491 1490
1494 1493 1494 1494 1495 1496 1497 1497 1498 1499 1500 1500 1500 1501 1502 1502 1503 1503 1503 1503 1503 1502 1501 1500 1500 1499 1498 1497 1496 1495 1494 1493 1492 1491 1491 1490 1489 1489 1489 1488 1487 1487 1486
1493 1493 1493 1493 1495 1496 1497 1497 1498 1499 1499 1500 1500 1500 1500 1501 1502 1502 1502 1502 1502 1501 1501 1500 1499 1498 1497 1496 1495 1494 1493 1491 1490 1489 1489 1488 1488 1487 1486 1485 1484 1483 1483
1492 1492 1493 1494 1494 1495 1495 1496 1497 1498 1498 1499 1500 1500 1500 1501 1501 1501 1502 1502 1501 1501 1500 1499 1498 1497 1496 1495 1493 1492 1490 1489 1488 1487 1485 1484 1484 1484 1483 1482 1480 1479 1478
1490 1490 1492 1493 1494 1495 1496 1496 1497 1497 1498 1499 1499 1499 1500 1501 1502 1502 1502 1502 1501 1500 1499 1499 1497 1496 1494 1492 1491 1489 1488 1486 1484 1483 1482 1482 1481 1480 1479 1478 1477 1475 1474
1487 1488 1490 1492 1493 1493 1494 1495 1496 1496 1497 1498 1500 1501 1501 1501 1501 1501 1501 1500 1500 1499 1498 1496 1495 1494 1493 1491 1490 1487 1486 1483 1483 1481 1480 1478 1477 1476 1474 1472 1471 1470 1468
1486 1487 1487 1489 1490 1491 1493 1493 1496 1496 1497 1498 1500 1500 1501 1501 1501 1501 1501 1501 1500 1499 1498 1497 1496 1494 1492 1491 1488 1486 1485 1483 1480 1478 1476 1475 1473 1472 1470 1468 1466 1464 1463
1483 1485 1486 1487 1487 1489 1491 1492 1494 1496 1497 1497 1498 1500 1500 1500 1501 1500 1500 1500 1499 1497 1496 1495 1494 1492 1490 1488 1486 1484 1482 1479 1478 1475 1473 1471 1469 1467 1465 1463 1461 1459 1457
1482 1482 1483 1484 1485 1486 1488 1490 1492 1495 1496 1496 1497 1498 1499 1499 1499 1499 1499 1498 1497 1496 1495 1494 1492 1490 1488 1485 1483 1480 1478 1476 1474 1471 1470 1466 1464 1462 1460 1458 1456 1453 1451
1477 1478 1480 1482 1483 1485 1486 1488 1491 1492 1494 1495 1496 1497 1497 1497 1496 1497 1496 1496 1495 1494 1493 1491 1489 1487 1484 1482 1479 1477 1475 1472 1468 1466 1464 1461 1459 1457 1455 1453 1450 1448 1446
1474 1475 1477 1478 1481 1483 1484 1488 1490 1491 1492 1493 1495 1495 1495 1496 1494 1493 1493 1493 1492 1491 1490 1488 1486 1483 1481 1478 1475 1472 1469 1467 1464 1462 1459 1457 1455 1452 1450 1448 1446 1444 1441
1472 1473 1474 1475 1478 1482 1484 1487 1488 1490 1490 1491 1492 1494 1494 1495 1493 1492 1492 1491 1490 1489 1487 1485 1483 1479 1476 1473 1470 1467 1466 1463 1460 1457 1455 1451 1450 1448 1446 1443 1441 1439 1436
1471 1472 1473 1475 1477 1480 1483 1485 1486 1487 1489 1491 1492 1493 1493 1493 1493 1492 1491 1490 1489 1486 1484 1481 1479 1477 1474 1471 1467 1464 1460 1458 1457 1453 1450 1448 1446 1443 1440 1438 1436 1433 1431
1472 1472 1473 1475 1478 1480 1482 1483 1485 1486 1489 1490 1491 1493 1493 1493 1492 1491 1490 1488 1486 1483 1481 1479 1476 1474 1471 1468 1463 1458 1455 1455 1453 1450 1447 1444 1441 1438 1436 1434 1431 1428 1425
1471 1471 1474 1476 1478 1480 1481 1482 1484 1487 1489 1491 1492 1493 1493 1492 1491 1490 1488 1486 1483 1481 1479 1477 1474 1471 1470 1467 1463 1457 1451 1449 1449 1447 1445 1441 1437 1435 1432 1429 1426 1423 1420
1469 1471 1474 1476 1477 1479 1481 1482 1485 1487 1490 1492 1492 1493 1492 1491 1490 1488 1486 1484 1482 1479 1477 1475 1473 1470 1467 1465 1464 1463 1455 1449 1442 1440 1438 1436 1433 1430 1426 1423 1420 1417 1414
1470 1472 1475 1477 1478 1480 1482 1483 1485 1488 1490 1491 1492 1491 1491 1490 1488 1486 1484 1481 1480 1477 1475 1473 1472 1469 1467 1464 1462 1461 1459 1454 1446 1431 1432 1429 1427 1424 1421 1418 1414 1409 1406
1471 1473 1475 1477 1478 1481 1483 1485 1486 1488 1489 1490 1490 1489 1487 1486 1485 1484 1482 1480 1478 1476 1474 1472 1470 1467 1465 1462 1459 1455 1452 1449 1446 1440 1421 1420 1420 1418 1415 1411 1408 1404 1399
1471 1473 1476 1478 1479 1481 1482 1484 1486 1487 1487 1488 1488 1487 1486 1485 1483 1482 1480 1478 1476 1474 1472 1470 1467 1464 1461 1459 1456 1452 1449 1445 1440 1435 1427 1417 1411 1409 1408 1404 1401 1396 1392